ONEWEB-0175 (48073 NORAD) Tracking and Keplerian Element Data

This shows tracking and keplerian element data for the satellite.

Feedback or suggestion? Click here.




ElementValue
Catalog48073
NameONEWEB-0175
Epoch Orbit174
Epoch Day170.58334491
Epoch Year2021
RAAN323.0685
Inclination87.7164
Eccentricity0.0008482
Argument of Perigee3.1246
Mean Anonmoly26.0353
Mean Motion13.70298152
Decay Rate1.5E-07
L11 48073U 21025AH 21170.58334491 .00000015 00000-0 00000-0 0 9996
L22 48073 87.7164 323.0685 0008482 3.1246 26.0353 13.70298152 1741

Live tracking and technical data element details for ONEWEB-0175 (NORAD 48073). ONEWEB-0175 can be tracked NOW for your location showing map with azimuth and elevation plus other details from your city location.

Track the satellite on the map from your city or location and see movement details for azimuth, elevation, latitude, longitude, range, height, and movement on the map or in text.







IsCatalogInMostPopularTable: catalog: 48073, numindb: 43
Update: records affected: 1



GetName: 48073 ONEWEB-0175

Hit Count: updated at: Mon, 21 Jun 2021 03:06:35 GMT